Location: NJAA Observatory
(40.6819°N, 74.8979°W)
Time: 18:23:16
(UTC-05:00)

Vanguard 1 - All Passes

Search period start: 17 January 2017 00:00
Search period end: 27 January 2017 00:00
Orbit: 652 x 3832 km, 34.2° (Epoch: 16 January)

Date Brightness Start Highest point End Pass type
(mag) Time Alt. Az. Time Alt. Az. Time Alt. Az.
17 Jan - 00:48:17 10° SSW 01:01:22 27° SSE 01:09:54 10° ESE night (unlit)
17 Jan - 03:10:58 10° SW 03:23:32 47° SSE 03:30:32 10° E visible
17 Jan - 05:35:39 10° W 05:44:17 51° S 05:49:30 10° ESE visible
17 Jan - 07:59:21 10° WSW 08:03:42 22° SSW 08:07:14 10° SSE daylight
17 Jan - 22:51:55 10° SSE 22:59:30 13° SE 23:05:50 10° ESE visible
18 Jan - 01:08:13 10° SSW 01:22:41 34° SSE 01:31:32 10° E visible
18 Jan - 03:32:12 10° WSW 03:44:41 52° S 03:51:33 10° E visible
18 Jan - 05:57:06 10° W 06:05:16 47° SSW 06:10:18 10° ESE visible
18 Jan - 08:21:17 10° WSW 08:24:23 15° SW 08:27:06 10° S daylight
18 Jan - 23:08:50 10° S 23:20:51 19° SSE 23:29:53 10° ESE visible
19 Jan - 01:28:39 10° SW 01:43:59 41° SSE 01:52:54 10° E visible
19 Jan - 03:53:35 10° WSW 04:05:50 56° S 04:12:31 10° E visible
19 Jan - 06:18:35 10° W 06:26:11 40° SSW 06:31:01 10° SE visible
19 Jan - 23:27:27 10° SSW 23:42:12 26° SSE 23:52:27 10° E visible
20 Jan - 01:49:27 10° SW 02:05:15 47° SSE 02:14:06 10° E visible
20 Jan - 04:15:06 10° WSW 04:26:57 58° S 04:33:26 10° ESE visible
20 Jan - 06:40:08 10° W 06:46:59 33° SSW 06:51:35 10° SE visible
20 Jan - 21:34:54 10° SSE 21:39:50 11° SE 21:44:24 10° SE visible
20 Jan - 23:46:57 10° SSW 00:03:32 33° SSE 00:14:22 10° E visible
21 Jan - 02:10:35 10° WSW 02:26:31 54° SSE 02:35:12 10° E visible
21 Jan - 04:36:40 10° W 04:48:01 56° S 04:54:18 10° ESE visible
21 Jan - 07:01:48 10° W 07:07:42 25° SSW 07:11:55 10° SSE daylight
21 Jan - 21:49:27 10° S 22:01:08 17° SE 22:10:45 10° ESE visible
22 Jan - 00:07:03 10° SW 00:24:51 40° SSE 00:35:55 10° E visible
22 Jan - 02:31:57 10° WSW 02:47:45 59° S 02:56:13 10° E visible
22 Jan - 04:58:16 10° W 05:09:03 52° SSW 05:15:07 10° ESE visible
22 Jan - 07:23:47 10° WSW 07:28:19 18° SW 07:31:50 10° S daylight
22 Jan - 22:07:12 10° S 22:22:25 24° SE 22:34:04 10° E visible
23 Jan - 00:27:36 10° SW 00:46:12 47° SSE 00:57:15 10° E visible
23 Jan - 02:53:28 10° WSW 03:08:59 62° S 03:17:12 10° E visible
23 Jan - 05:19:53 10° W 05:29:58 46° SSW 05:35:49 10° SE visible
23 Jan - 07:46:40 10° WSW 07:48:49 12° SW 07:50:44 10° SSW daylight
23 Jan - 22:26:08 10° SSW 22:43:41 30° SSE 22:56:25 10° E visible
24 Jan - 00:48:31 10° SW 01:07:31 53° SSE 01:18:27 10° E visible
24 Jan - 03:15:06 10° WSW 03:30:10 63° S 03:38:08 10° ESE visible
24 Jan - 05:41:34 10° W 05:50:48 38° SSW 05:56:23 10° SE visible
24 Jan - 20:31:57 10° SSE 20:41:06 14° SE 20:49:24 10° ESE visible
24 Jan - 22:45:48 10° SSW 23:04:59 37° SSE 23:18:15 10° E visible
25 Jan - 01:09:44 10° WSW 01:28:51 59° SSE 01:39:34 10° E visible
25 Jan - 03:36:48 10° W 03:51:20 61° S 03:59:02 10° ESE visible
25 Jan - 06:03:21 10° W 06:11:30 30° SW 06:16:43 10° SSE visible
25 Jan - 20:48:07 10° S 21:02:13 20° SE 21:14:18 10° E visible
25 Jan - 23:06:00 10° SW 23:26:18 44° SSE 23:39:48 10° E visible
26 Jan - 01:31:10 10° WSW 01:50:11 63° S 02:00:38 10° E visible
26 Jan - 03:58:32 10° W 04:12:25 57° SSW 04:19:51 10° ESE visible
26 Jan - 06:25:21 10° W 06:32:03 22° SW 06:36:43 10° S visible
26 Jan - 21:06:17 10° S 21:23:21 27° SE 21:37:23 10° E visible
